Retour au catalogue

THOR ABLESTAR DEB

ActifLEO
NORAD 417·DEBRIS·🇺🇸 United States

Lancé Jun 29, 1961 depuis Cape Canaveral Space Force Station

Loading…

Prochains Passages (prochaines 24 heures)

TLE

FraisSource: Space-Track

Époque: Sep 14, 2026, 05:17 UTC

1 00417U 61015ES  26257.22023728  .00000238  00000-0  14538-3 0  9990
2 00417  66.7471 341.8913 0063796  33.0693 327.4364 14.20810399350148

Suivez THOR ABLESTAR DEB en temps réel avec AllMySat

Download on the App Store